Marshfield, WI

5:02 AM CDT on October 20, 2017 (GMT -0500)
Marshfield Municipal

Weather History for KMFI - March, 2013

Change the Weather History Date:

Thursday, March 7, 2013

  Actual Average Record
Temperature  
Mean Temperature 18 °F -  
Max Temperature 28 °F 36 °F 70 °F (1987)
Min Temperature 8 °F 14 °F -20 °F (1913)
Degree Days  
Heating Degree Days 47    
Moisture  
Dew Point 10 °F    
Average Humidity 70    
Maximum Humidity 95    
Minimum Humidity 49    
Precipitation  
Precipitation 0.00 in - - ()
Sea Level Pressure  
Sea Level Pressure 30.42 in    
Wind  
Wind Speed 4 mph (ENE)    
Max Wind Speed 7 mph    
Max Gust Speed -    
Visibility 10 miles    
Events      
Averages and records for this station are not official NWS values.
T = Trace of Precipitation, MM = Missing Value Source: NWS Daily Summary

Daily Weather History Graph

Daily Weather History Graph

Search for Another Location

Airport or City:

Trip Planner

Search our weather history database for the weather conditions in past years. The results will help you decide how hot, cold, wet, or windy it might be!

Date:

Astronomy

Mar. 07, 2013 Rise Set
Actual Time 6:27 AM CST 5:56 PM CST
Civil Twilight 5:58 AM CST 6:26 PM CST
Nautical Twilight 5:24 AM CST 6:59 PM CST
Astronomical Twilight 4:50 AM CST 7:33 PM CST
Moon 3:35 AM CST (3/7) 1:36 PM CST (3/7)
Length of Visible Light 12h 27m
Length of Day
11h 29m
Waning Crescent, 20% of the Moon is Illuminated
Mar 7
Waning Crescent
Mar 11
New
Mar 19
First Quarter
Mar 27
Full
Apr 2
Last Quarter

Hourly Weather History & Observations

Time (CST) Temp. Windchill Dew Point Humidity Pressure Visibility Wind Dir Wind Speed Gust Speed Precip Events Conditions
12:54 AM 10.0 °F -0.9 °F 6.1 °F 84% 30.38 in 10.0 mi NNW 6.9 mph - N/A   Clear
1:54 AM 12.9 °F 6.9 °F 8.1 °F 81% 30.38 in 10.0 mi North 3.5 mph - N/A   Clear
2:54 AM 15.1 °F 7.7 °F 9.0 °F 77% 30.37 in 10.0 mi NE 4.6 mph - N/A   Clear
3:54 AM 12.0 °F 5.9 °F 8.1 °F 84% 30.39 in 10.0 mi NNE 3.5 mph - N/A   Clear
4:54 AM 10.0 °F 3.6 °F 7.0 °F 87% 30.40 in 10.0 mi NNE 3.5 mph - N/A   Clear
5:54 AM 8.1 °F - 5.0 °F 87% 30.41 in 10.0 mi Calm Calm - N/A   Clear
6:54 AM 9.0 °F - 6.1 °F 88% 30.43 in 10.0 mi Calm Calm - N/A   Clear
7:54 AM 12.0 °F - 10.9 °F 95% 30.44 in 10.0 mi Calm Calm - N/A   Clear
8:54 AM 19.0 °F 13.9 °F 12.0 °F 74% 30.44 in 10.0 mi ENE 3.5 mph - N/A   Clear
9:54 AM 21.0 °F 13.4 °F 12.9 °F 71% 30.45 in 10.0 mi ENE 5.8 mph - N/A   Clear
10:54 AM 23.0 °F 17.0 °F 12.9 °F 65% 30.45 in 10.0 mi East 4.6 mph - N/A   Clear
11:54 AM 24.1 °F 18.2 °F 12.9 °F 62% 30.44 in 10.0 mi SE 4.6 mph - N/A   Clear
12:54 PM 27.0 °F - 12.9 °F 56% 30.43 in 10.0 mi Calm Calm - N/A   Clear
1:54 PM 27.0 °F - 12.0 °F 53% 30.42 in 10.0 mi Calm Calm - N/A   Clear
2:54 PM 28.9 °F 25.2 °F 12.0 °F 49% 30.40 in 10.0 mi ENE 3.5 mph - N/A   Clear
3:54 PM 28.0 °F 22.8 °F 12.0 °F 51% 30.40 in 10.0 mi East 4.6 mph - N/A   Clear
4:54 PM 27.0 °F 21.6 °F 10.9 °F 51% 30.40 in 10.0 mi ENE 4.6 mph - N/A   Clear
5:54 PM 27.0 °F 23.0 °F 12.0 °F 53% 30.42 in 10.0 mi NE 3.5 mph - N/A   Clear
6:54 PM 24.1 °F 19.7 °F 12.0 °F 60% 30.43 in 10.0 mi East 3.5 mph - N/A   Clear
7:54 PM 21.0 °F - 10.9 °F 65% 30.43 in 10.0 mi Calm Calm - N/A   Clear
8:54 PM 21.0 °F 16.2 °F 12.0 °F 68% 30.41 in 10.0 mi East 3.5 mph - N/A   Clear
9:54 PM 19.9 °F 12.1 °F 12.0 °F 71% 30.42 in 10.0 mi SSE 5.8 mph - N/A   Clear
10:54 PM 18.0 °F 12.7 °F 10.9 °F 74% 30.43 in 10.0 mi SE 3.5 mph - N/A   Clear
11:54 PM 18.0 °F 11.1 °F 10.9 °F 74% 30.43 in 10.0 mi ESE 4.6 mph - N/A   Clear